When you browse on this site, cookies collect data to enhance your experience and personalize the content and advertising you see.
Visit our Privacy Policy to learn more. By continuing to use the site, you agree to this use of cookies and data.
  • en France
  • Liste des pays
  • À 7 jours
  • Température de l'eau
  • Carte satellitaire
  • Carte météo
  • Widgets météo
  • user-avatar
    Se connecter

    Météo par heure à Busan

    Ce jour, 21 Juillet, Dimanche

    Heure Température Précipitation Vent Pression Humidité
    00:00 +26°C° 2.1 mm 10 m/s 747 mmHg 93%
    01:00 +26°C° 2.1 mm 10 m/s 747 mmHg 93%
    02:00 +26°C° 2.1 mm 10 m/s 747 mmHg 94%
    03:00 +24°C° 0 mm 10 m/s 748 mmHg 91%
    04:00 +24°C° 9.6 mm 10 m/s 748 mmHg 93%
    05:00 +24°C° 9.6 mm 10 m/s 748 mmHg 95%
    06:00 +24°C° 9.6 mm 10 m/s 748 mmHg 96%
    07:00 +24°C° 2.2 mm 9 m/s 748 mmHg 96%
    08:00 +24°C° 2.2 mm 8 m/s 748 mmHg 95%
    09:00 +26°C° 0 mm 6 m/s 749 mmHg 95%
    10:00 +26°C° 0.4 mm 6 m/s 750 mmHg 94%
    11:00 +26°C° 0.4 mm 6 m/s 750 mmHg 93%
    12:00 +26°C° 0.4 mm 6 m/s 750 mmHg 92%
    13:00 +28°C° 0.1 mm 6 m/s 750 mmHg 87%
    14:00 +29°C° 0.1 mm 6 m/s 750 mmHg 81%
    15:00 +30°C° 0 mm 6 m/s 751 mmHg 79%
    16:00 +29°C° 0.1 mm 6 m/s 751 mmHg 80%
    17:00 +29°C° 0.1 mm 6 m/s 751 mmHg 81%
    18:00 +29°C° 0.1 mm 6 m/s 751 mmHg 82%
    19:00 +28°C° 0 mm 5 m/s 751 mmHg 85%
    20:00 +27°C° 0 mm 5 m/s 751 mmHg 87%
    21:00 +26°C° 0 mm 4 m/s 751 mmHg 90%
    22:00 +26°C° 0 mm 4 m/s 752 mmHg 90%
    23:00 +26°C° 0 mm 4 m/s 752 mmHg 90%

    Demain, 22 Juillet, Lundi

    Heure Température Précipitation Vent Pression Humidité
    00:00 +26°C° 0 mm 4 m/s 752 mmHg 90%
    01:00 +26°C° 0 mm 3 m/s 752 mmHg 91%
    02:00 +25°C° 0 mm 3 m/s 752 mmHg 91%
    03:00 +25°C° 0 mm 3 m/s 752 mmHg 91%
    04:00 +25°C° 0 mm 3 m/s 751 mmHg 91%
    05:00 +25°C° 0 mm 2 m/s 751 mmHg 91%
    06:00 +25°C° 0 mm 2 m/s 751 mmHg 91%
    07:00 +27°C° 0 mm 2 m/s 752 mmHg 84%
    08:00 +28°C° 0 mm 2 m/s 752 mmHg 78%
    09:00 +30°C° 0 mm 2 m/s 752 mmHg 72%
    10:00 +31°C° 0 mm 3 m/s 752 mmHg 66%
    11:00 +34°C° 0 mm 4 m/s 751 mmHg 60%
    12:00 +35°C° 0 mm 4 m/s 751 mmHg 54%
    13:00 +35°C° 0 mm 4 m/s 751 mmHg 54%
    14:00 +36°C° 0 mm 5 m/s 751 mmHg 54%
    15:00 +36°C° 0 mm 5 m/s 750 mmHg 54%
    16:00 +35°C° 0.1 mm 5 m/s 750 mmHg 60%
    17:00 +34°C° 0.1 mm 5 m/s 750 mmHg 65%
    18:00 +33°C° 0.1 mm 5 m/s 750 mmHg 71%
    19:00 +32°C° 0.2 mm 4 m/s 750 mmHg 75%
    20:00 +29°C° 0.2 mm 4 m/s 751 mmHg 80%
    21:00 +28°C° 0.2 mm 4 m/s 751 mmHg 84%
    22:00 +28°C° 0 mm 4 m/s 751 mmHg 86%
    23:00 +27°C° 0 mm 4 m/s 751 mmHg 88%

    Après-demain, 23 Juillet, Mardi

    Heure Température Précipitation Vent Pression Humidité
    00:00 +27°C° 0 mm 4 m/s 751 mmHg 90%
    01:00 +27°C° 0 mm 4 m/s 751 mmHg 90%
    02:00 +27°C° 0 mm 4 m/s 751 mmHg 91%
    03:00 +26°C° 0 mm 4 m/s 751 mmHg 91%
    04:00 +26°C° 0 mm 4 m/s 751 mmHg 92%
    05:00 +26°C° 0 mm 4 m/s 751 mmHg 92%
    06:00 +26°C° 0 mm 3 m/s 751 mmHg 92%
    07:00 +28°C° 0 mm 3 m/s 751 mmHg 86%
    08:00 +29°C° 0 mm 3 m/s 751 mmHg 80%
    09:00 +30°C° 0 mm 3 m/s 751 mmHg 74%
    10:00 +33°C° 0 mm 3 m/s 751 mmHg 68%
    11:00 +34°C° 0 mm 3 m/s 751 mmHg 62%
    12:00 +35°C° 0 mm 4 m/s 750 mmHg 56%
    13:00 +35°C° 0.3 mm 4 m/s 750 mmHg 57%
    14:00 +35°C° 0.3 mm 5 m/s 750 mmHg 57%
    15:00 +35°C° 0.3 mm 6 m/s 749 mmHg 58%
    16:00 +35°C° 0.1 mm 5 m/s 749 mmHg 61%
    17:00 +34°C° 0.1 mm 5 m/s 749 mmHg 64%
    18:00 +33°C° 0.1 mm 5 m/s 749 mmHg 67%
    19:00 +32°C° 0 mm 5 m/s 749 mmHg 71%
    20:00 +30°C° 0 mm 4 m/s 749 mmHg 74%
    21:00 +29°C° 0 mm 4 m/s 750 mmHg 77%
    22:00 +28°C° 0 mm 4 m/s 750 mmHg 78%
    23:00 +28°C° 0 mm 3 m/s 750 mmHg 80%

    24 Juillet, Mercredi

    Heure Température Précipitation Vent Pression Humidité
    00:00 +28°C° 0 mm 3 m/s 750 mmHg 81%
    01:00 +27°C° 0 mm 3 m/s 750 mmHg 83%
    02:00 +27°C° 0 mm 3 m/s 750 mmHg 85%
    03:00 +27°C° 0 mm 3 m/s 750 mmHg 86%
    04:00 +26°C° 0 mm 3 m/s 750 mmHg 88%
    05:00 +26°C° 0 mm 3 m/s 750 mmHg 90%
    06:00 +26°C° 0 mm 3 m/s 750 mmHg 91%
    07:00 +28°C° 0 mm 3 m/s 750 mmHg 84%
    08:00 +29°C° 0 mm 3 m/s 751 mmHg 77%
    09:00 +30°C° 0 mm 3 m/s 751 mmHg 70%
    10:00 +32°C° 0 mm 4 m/s 751 mmHg 68%
    11:00 +33°C° 0 mm 4 m/s 751 mmHg 65%
    12:00 +34°C° 0 mm 5 m/s 751 mmHg 62%
    13:00 +34°C° 0 mm 5 m/s 750 mmHg 61%
    14:00 +34°C° 0 mm 5 m/s 750 mmHg 59%
    15:00 +34°C° 0 mm 6 m/s 750 mmHg 57%
    16:00 +34°C° 0 mm 5 m/s 750 mmHg 61%
    17:00 +33°C° 0 mm 5 m/s 750 mmHg 64%
    18:00 +32°C° 0 mm 5 m/s 750 mmHg 68%
    19:00 +30°C° 0 mm 4 m/s 750 mmHg 72%
    20:00 +29°C° 0 mm 4 m/s 751 mmHg 76%
    21:00 +28°C° 0 mm 3 m/s 751 mmHg 81%
    22:00 +28°C° 0 mm 3 m/s 751 mmHg 83%
    23:00 +27°C° 0 mm 3 m/s 751 mmHg 85%

    25 Juillet, Jeudi

    Heure Température Précipitation Vent Pression Humidité
    00:00 +27°C° 0 mm 3 m/s 751 mmHg 87%
    01:00 +27°C° 0 mm 3 m/s 752 mmHg 88%
    02:00 +27°C° 0 mm 3 m/s 752 mmHg 89%
    03:00 +27°C° 0 mm 3 m/s 752 mmHg 90%
    04:00 +27°C° 0 mm 3 m/s 752 mmHg 90%
    05:00 +27°C° 0 mm 2 m/s 752 mmHg 91%
    06:00 +27°C° 0 mm 2 m/s 752 mmHg 91%
    07:00 +28°C° 0 mm 3 m/s 752 mmHg 88%
    08:00 +29°C° 0 mm 3 m/s 752 mmHg 84%
    09:00 +29°C° 0 mm 4 m/s 752 mmHg 81%
    10:00 +30°C° 0.1 mm 4 m/s 752 mmHg 76%
    11:00 +32°C° 0.1 mm 5 m/s 752 mmHg 71%
    12:00 +33°C° 0.1 mm 5 m/s 752 mmHg 66%
    13:00 +33°C° 0 mm 5 m/s 752 mmHg 66%
    14:00 +33°C° 0 mm 6 m/s 752 mmHg 65%
    15:00 +33°C° 0 mm 6 m/s 751 mmHg 64%
    16:00 +33°C° 0 mm 6 m/s 751 mmHg 67%
    17:00 +32°C° 0 mm 5 m/s 751 mmHg 70%
    18:00 +30°C° 0 mm 5 m/s 751 mmHg 74%
    19:00 +29°C° 0 mm 5 m/s 751 mmHg 78%
    20:00 +29°C° 0 mm 4 m/s 752 mmHg 82%
    21:00 +28°C° 0 mm 4 m/s 752 mmHg 87%
    22:00 +27°C° 0 mm 4 m/s 752 mmHg 88%
    23:00 +27°C° 0 mm 4 m/s 752 mmHg 90%

    26 Juillet, Vendredi

    Heure Température Précipitation Vent Pression Humidité
    00:00 +27°C° 0 mm 4 m/s 752 mmHg 91%
    01:00 +27°C° 0.1 mm 4 m/s 752 mmHg 92%
    02:00 +27°C° 0.1 mm 4 m/s 752 mmHg 92%
    03:00 +27°C° 0.1 mm 4 m/s 752 mmHg 93%
    04:00 +27°C° 0.1 mm 4 m/s 752 mmHg 93%
    05:00 +27°C° 0.1 mm 4 m/s 752 mmHg 93%
    06:00 +27°C° 0.1 mm 4 m/s 752 mmHg 93%
    07:00 +28°C° 0 mm 5 m/s 752 mmHg 88%
    08:00 +29°C° 0 mm 5 m/s 752 mmHg 83%
    09:00 +30°C° 0 mm 6 m/s 752 mmHg 77%
    10:00 +30°C° 0 mm 6 m/s 752 mmHg 73%
    11:00 +32°C° 0 mm 7 m/s 752 mmHg 69%
    12:00 +33°C° 0 mm 7 m/s 752 mmHg 64%
    13:00 +33°C° 0 mm 7 m/s 752 mmHg 64%
    14:00 +33°C° 0 mm 7 m/s 751 mmHg 63%
    15:00 +34°C° 0 mm 7 m/s 751 mmHg 62%
    16:00 +33°C° 0 mm 6 m/s 751 mmHg 65%
    17:00 +32°C° 0 mm 6 m/s 751 mmHg 69%
    18:00 +30°C° 0 mm 6 m/s 751 mmHg 73%
    19:00 +29°C° 0 mm 5 m/s 752 mmHg 77%
    20:00 +29°C° 0 mm 5 m/s 752 mmHg 82%
    21:00 +28°C° 0 mm 4 m/s 752 mmHg 86%
    22:00 +28°C° 0 mm 4 m/s 752 mmHg 87%
    23:00 +27°C° 0 mm 4 m/s 752 mmHg 89%
    Voir plus